AEHF-1 (USA 214)

Last updated on Wed Sep 17 2025 00:02:47 GMT+0000 (Coordinated Universal Time)

1 36868U 10039A 25259.58971204 .00000132 00000+0 00000+0 0 9997 2 36868 7.5344 71.4876 0004129 100.4227 66.2344 1.00277959 50911
UTC large
Height (km)
Speed (km/s)
/
Latitude / Longitude
Inclination (degrees)
Orbital Period (minutes)
Azimuth
Elevation
Range (km)
Doppler Factor

Next 0 passes for location: London (51.5072 / 0.1276)

Sorry there are no passes over London.